Wind_Speed
32 32 33 33 33 34 34 34 35 35 35 35 35 35 36 36 36 35 35 35 35 35 35 35 36 36 36 35 35 35 35 34 34 34 34 33 33 32 32 31 30 29 29
33 33 33 34 34 35 35 35 35 35 36 36 37 37 37 38 38 37 37 37 37 37 37 37 37 37 37 37 37 37 37 37 36 35 35 35 35 34 33 32 31 31 30
35 35 35 36 36 37 37 38 38 39 39 40 40 40 40 39 40 40 40 39 39 39 39 40 39 39 38 38 38 38 38 38 37 37 37 36 36 35 34 34 33 32 32
36 36 37 37 38 38 39 40 41 42 42 43 43 43 43 43 43 43 43 43 42 42 42 42 42 42 42 41 41 41 40 40 39 39 38 37 38 37 36 35 35 34 34
38 38 38 38 39 40 40 42 42 43 44 44 44 44 44 45 45 44 45 45 45 45 45 44 44 44 44 44 44 44 43 43 42 41 40 39 39 38 38 37 37 36 36
39 39 40 41 41 42 42 43 43 44 44 44 45 45 46 46 47 47 47 48 48 48 48 48 48 48 47 47 47 46 45 45 44 43 42 41 41 40 40 39 38 37 37
40 41 41 42 43 43 44 44 45 45 45 45 45 46 46 46 47 48 49 49 50 51 51 51 51 51 51 50 49 49 48 47 46 45 44 44 43 42 41 40 40 39 38
41 41 42 43 44 44 44 44 44 45 45 45 45 46 46 46 46 47 48 50 51 52 53 53 53 53 52 51 51 51 50 49 49 48 47 46 45 45 44 43 41 40 40
41 42 43 43 43 44 45 45 45 45 44 45 45 45 45 45 46 46 48 49 51 53 53 54 54 53 53 52 52 53 51 50 50 50 50 49 48 47 46 46 44 42 42
42 43 42 42 43 43 43 44 44 43 43 44 44 45 45 46 46 46 47 49 50 51 52 53 53 53 53 53 54 54 54 53 52 51 51 51 51 50 49 47 46 45 45
42 42 42 42 42 42 42 42 42 43 43 43 44 45 45 46 47 47 47 48 49 50 52 52 54 55 54 53 53 53 54 55 55 54 53 53 52 50 49 48 47 47 46
40 40 40 41 41 41 41 41 42 42 43 44 44 45 45 46 47 47 47 47 48 48 50 51 52 53 55 56 55 55 54 55 55 54 54 53 53 53 52 52 50 48 48
39 39 40 39 39 39 40 40 41 42 42 43 44 45 46 46 47 47 48 48 48 48 49 50 51 52 53 55 56 55 55 55 55 54 54 54 54 55 54 52 51 50 50
39 39 39 39 39 39 39 40 40 41 41 42 43 44 45 46 47 47 48 49 50 50 51 51 51 52 52 54 56 57 56 57 56 56 55 55 54 54 54 53 52 52 52
38 38 38 38 38 38 39 39 39 40 40 41 42 43 44 45 46 47 48 49 50 50 49 50 52 53 53 53 54 56 56 57 57 57 57 56 56 57 56 56 55 55 54
36 36 37 37 37 38 39 39 39 40 40 41 41 42 43 44 45 46 48 48 49 49 49 49 50 51 52 52 52 54 54 55 56 57 58 58 57 58 57 57 57 56 56
34 35 35 36 36 37 37 38 38 39 40 40 41 41 42 42 43 44 45 46 47 48 48 47 48 48 50 51 51 52 52 53 55 57 57 58 60 60 60 60 59 59 58
32 33 34 35 36 36 37 37 38 39 39 40 40 41 41 42 42 43 43 44 46 46 47 47 48 49 50 51 52 53 54 54 55 56 57 58 60 62 62 61 61 62 61
32 33 34 35 36 36 37 37 38 38 39 39 40 40 41 41 42 42 42 43 44 45 46 47 48 49 50 51 52 53 54 56 57 57 58 59 60 62 63 63 62 62 63
32 33 34 35 36 36 36 37 37 37 38 39 40 40 41 41 41 42 42 43 43 44 45 46 47 48 49 51 52 53 54 55 56 57 58 59 59 61 63 63 63 62 63
33 33 34 35 35 36 36 37 37 37 38 39 40 40 41 41 41 42 42 42 42 43 44 46 47 48 50 51 52 53 54 55 55 56 57 58 59 60 61 62 63 64 64
33 34 35 35 36 36 37 37 38 38 39 40 41 41 41 42 42 42 42 42 43 44 45 46 47 48 48 49 50 52 53 53 53 54 55 57 59 59 60 62 63 64 64
32 33 34 35 36 36 36 37 38 39 40 41 42 42 42 42 42 42 42 43 44 45 46 47 47 47 48 48 49 50 51 53 54 55 56 56 58 59 60 61 62 63 63
34 34 35 35 36 36 36 37 38 39 41 41 42 42 42 42 43 43 44 45 46 47 48 48 49 49 49 50 50 51 51 52 53 55 56 56 56 57 58 60 61 62 63
35 35 36 36 36 37 37 38 39 40 41 41 41 42 42 43 43 44 45 46 47 47 48 48 49 49 49 50 50 51 52 53 53 54 55 56 56 57 57 58 59 60 62
35 36 36 36 37 38 38 39 40 41 42 42 43 43 44 44 44 45 46 47 47 47 47 46 47 47 48 48 49 50 51 51 52 53 54 55 55 56 56 57 58 59 59
Wind_Direction
268 269 270 270 270 271 271 272 272 272 272 272 271 271 271 271 271 271 271 270 270 269 269 269 269 268 268 267 268 268 268 268 269 270 271 272 273 275 276 277 277 278 279
269 270 270 271 271 271 272 272 272 272 273 273 272 272 271 271 271 270 270 270 270 270 269 269 268 268 268 268 268 268 268 268 269 269 271 271 272 273 274 275 275 276 277
269 269 270 270 271 271 272 272 273 273 273 273 273 272 272 271 271 271 270 270 269 270 270 270 268 268 268 268 267 267 267 268 268 269 269 270 271 272 273 273 274 276 276
269 270 270 271 271 272 273 273 273 274 274 273 273 272 272 271 271 271 270 270 269 269 269 269 269 268 267 267 267 267 267 267 268 268 268 269 269 270 271 272 272 274 275
270 270 271 272 273 274 275 275 275 274 274 274 273 272 272 272 272 272 271 270 270 269 268 268 268 268 267 267 267 266 266 266 267 267 266 267 268 269 269 271 272 273 274
271 272 273 274 275 276 277 276 276 276 276 275 274 273 272 272 271 271 271 270 269 268 268 267 267 267 266 266 266 265 265 265 266 265 265 266 266 267 268 269 270 271 273
273 274 274 275 276 276 277 277 277 277 277 276 275 274 273 272 272 271 270 270 269 268 268 268 267 266 266 265 264 264 264 264 265 265 265 265 265 267 267 268 269 270 271
274 274 274 275 276 277 278 278 277 277 276 276 276 275 273 272 272 272 271 270 269 269 269 268 267 266 266 265 264 264 264 265 266 266 265 263 263 265 265 265 266 268 269
275 275 275 277 278 279 279 279 279 278 276 275 276 277 275 273 272 272 273 273 272 271 270 268 267 265 264 264 263 263 263 264 265 265 264 264 264 265 265 264 264 266 267
276 276 277 278 279 280 279 279 279 278 277 276 277 277 277 276 274 273 273 274 273 272 271 269 267 265 265 264 263 263 262 262 263 263 263 262 263 264 263 263 264 264 264
277 278 279 280 280 280 280 280 279 277 277 277 277 277 277 276 276 275 273 273 273 273 272 270 269 266 265 264 263 262 262 261 262 263 263 262 262 263 263 262 263 264 263
278 279 280 281 281 281 280 280 279 278 277 277 277 277 277 277 276 275 274 273 273 273 272 269 269 267 266 264 263 263 263 262 261 262 262 262 261 261 261 262 262 262 263
278 280 281 282 281 281 281 281 281 281 280 279 278 278 278 277 276 274 273 273 273 273 272 271 270 269 267 266 265 265 264 264 263 262 261 261 260 259 260 261 262 262 263
279 280 281 281 281 282 282 283 283 283 283 282 281 281 279 278 277 276 275 274 274 273 272 271 270 270 268 267 265 264 264 263 262 262 262 261 261 260 260 261 262 262 263
280 281 281 282 283 283 283 283 283 283 283 284 284 284 282 280 279 278 277 276 275 274 273 273 271 269 268 267 266 264 263 263 263 263 263 262 261 260 260 261 261 261 262
280 281 282 283 283 284 284 284 284 285 285 285 285 285 284 283 282 280 278 277 276 275 273 273 271 270 268 267 267 267 266 265 264 264 265 263 262 261 260 260 261 262 262
282 282 283 284 285 286 286 285 286 286 286 286 287 287 286 286 285 284 281 279 277 275 274 273 272 270 269 267 267 267 267 267 266 266 266 264 262 262 261 260 260 260 259
283 283 284 286 287 287 287 287 287 287 287 288 288 288 288 287 286 285 284 282 279 277 275 274 274 273 271 269 268 269 269 268 268 267 265 264 263 262 262 260 259 258 259
284 284 284 286 288 289 289 289 289 288 288 288 289 289 289 288 287 287 286 284 282 280 278 277 275 275 273 271 271 271 270 269 270 269 267 265 264 262 261 260 260 259 259
285 286 287 287 288 289 290 290 290 289 289 289 289 290 290 289 288 288 287 286 284 282 280 279 278 276 275 274 272 271 271 271 270 269 268 266 265 264 261 260 260 259 259
286 287 288 289 289 290 290 290 290 290 290 290 290 291 291 290 290 289 288 287 285 284 282 280 279 279 277 276 274 273 272 272 271 270 269 268 267 266 263 261 261 261 260
287 288 289 290 290 290 290 289 290 290 290 290 290 290 291 291 290 289 287 286 286 285 284 283 281 280 280 278 276 275 273 272 272 271 271 270 269 267 265 263 262 262 262
288 289 289 290 290 290 290 290 291 291 292 292 291 290 290 291 290 289 289 288 287 287 286 285 283 282 281 280 278 277 276 275 274 272 271 271 270 267 265 264 262 262 261
288 289 290 291 291 291 291 291 292 293 294 293 292 292 292 292 291 290 290 290 289 289 287 286 285 284 283 282 281 279 278 277 276 274 273 272 271 270 268 266 264 263 262
289 290 290 291 292 292 292 292 293 294 295 294 294 293 293 293 292 292 292 291 291 289 288 286 285 284 284 283 282 281 280 279 277 276 275 273 272 271 270 268 267 266 265
291 290 291 291 292 292 292 293 293 294 294 294 294 294 294 293 292 292 292 292 292 290 288 286 285 284 284 283 283 282 282 281 279 277 275 274 273 272 270 269 268 267 266
Height
5825 5825 5825 5824 5824 5823 5823 5823 5822 5822 5822 5821 5821 5820 5820 5819 5819 5819 5819 5819 5818 5818 5818 5818 5818 5818 5818 5818 5818 5818 5818 5817 5817 5817 5816 5816 5816 5816 5815 5814 5814 5813 5812
5818 5818 5817 5817 5817 5816 5816 5815 5815 5815 5814 5814 5813 5813 5812 5812 5811 5811 5811 5811 5811 5810 5810 5810 5810 5810 5810 5810 5810 5810 5810 5810 5810 5809 5809 5809 5809 5809 5808 5808 5807 5807 5806
5811 5810 5810 5809 5809 5808 5808 5807 5807 5806 5806 5805 5805 5804 5804 5803 5803 5802 5802 5802 5802 5801 5801 5801 5801 5802 5802 5802 5802 5802 5802 5802 5802 5801 5801 5801 5801 5801 5801 5801 5800 5800 5799
5803 5802 5802 5802 5801 5800 5799 5799 5798 5797 5797 5796 5795 5795 5794 5794 5794 5793 5793 5793 5792 5792 5792 5792 5792 5792 5793 5793 5793 5793 5793 5793 5793 5793 5793 5793 5793 5793 5793 5793 5793 5793 5792
5794 5794 5794 5793 5792 5791 5791 5790 5789 5788 5787 5786 5785 5784 5784 5783 5783 5783 5783 5782 5782 5782 5782 5782 5782 5782 5782 5783 5783 5783 5784 5784 5784 5784 5784 5784 5784 5784 5785 5785 5785 5785 5784
5786 5785 5785 5784 5783 5782 5781 5780 5778 5777 5776 5775 5774 5773 5773 5772 5772 5772 5771 5771 5771 5770 5770 5770 5770 5771 5771 5771 5772 5772 5773 5773 5774 5774 5774 5775 5775 5775 5775 5776 5776 5776 5776
5777 5776 5775 5775 5773 5772 5771 5770 5768 5767 5765 5764 5763 5762 5762 5761 5761 5760 5759 5759 5759 5758 5758 5758 5758 5758 5759 5759 5760 5761 5761 5762 5763 5763 5764 5764 5765 5765 5766 5766 5767 5767 5767
5768 5767 5766 5765 5764 5762 5760 5759 5758 5756 5755 5753 5752 5751 5751 5751 5750 5748 5747 5746 5746 5745 5745 5745 5745 5745 5746 5747 5748 5748 5749 5750 5751 5752 5753 5753 5754 5755 5755 5756 5757 5757 5757
5758 5757 5756 5755 5753 5752 5750 5748 5746 5745 5743 5742 5741 5740 5739 5740 5739 5738 5735 5734 5733 5732 5732 5731 5731 5732 5732 5733 5735 5736 5737 5737 5738 5740 5741 5742 5743 5744 5744 5745 5746 5746 5747
5748 5747 5745 5744 5743 5741 5739 5737 5735 5733 5732 5731 5730 5729 5728 5727 5726 5726 5725 5722 5720 5719 5718 5718 5718 5718 5718 5719 5721 5722 5723 5724 5725 5726 5728 5729 5730 5732 5733 5733 5734 5735 5736
5738 5737 5735 5734 5732 5730 5728 5726 5725 5723 5722 5721 5720 5718 5717 5715 5713 5713 5713 5711 5708 5706 5704 5704 5704 5704 5705 5706 5707 5708 5709 5710 5712 5713 5714 5716 5717 5718 5720 5721 5722 5723 5724
5728 5727 5725 5723 5722 5720 5718 5716 5714 5712 5711 5709 5708 5706 5705 5703 5702 5700 5699 5698 5696 5694 5692 5691 5690 5690 5691 5692 5693 5694 5695 5696 5697 5698 5700 5702 5703 5705 5706 5708 5709 5710 5712
5719 5717 5715 5713 5712 5709 5707 5705 5704 5702 5700 5698 5697 5695 5693 5691 5689 5687 5686 5684 5683 5681 5679 5678 5677 5677 5677 5677 5678 5679 5680 5681 5682 5684 5686 5687 5689 5690 5692 5694 5695 5697 5699
5709 5707 5706 5704 5702 5700 5698 5696 5694 5692 5690 5687 5685 5683 5680 5678 5676 5674 5672 5671 5669 5668 5666 5665 5664 5663 5663 5663 5664 5665 5666 5667 5668 5669 5671 5672 5673 5675 5677 5679 5681 5682 5684
5700 5698 5696 5694 5692 5690 5688 5686 5684 5681 5679 5677 5674 5671 5668 5666 5663 5661 5659 5657 5656 5654 5654 5652 5650 5650 5649 5650 5650 5650 5651 5652 5653 5654 5656 5657 5658 5660 5662 5664 5666 5667 5669
5690 5689 5687 5685 5683 5681 5678 5676 5674 5671 5669 5666 5663 5660 5657 5654 5651 5649 5646 5644 5642 5640 5640 5639 5637 5636 5636 5636 5636 5636 5636 5637 5638 5639 5640 5641 5642 5644 5646 5648 5650 5652 5654
5681 5680 5678 5676 5674 5672 5669 5666 5664 5662 5659 5656 5653 5650 5646 5643 5640 5637 5634 5632 5629 5627 5626 5625 5623 5623 5622 5623 5623 5622 5622 5622 5623 5624 5624 5625 5626 5627 5629 5631 5633 5636 5637
5673 5671 5669 5667 5665 5662 5660 5657 5654 5651 5649 5646 5643 5639 5636 5633 5629 5625 5622 5620 5617 5615 5614 5613 5611 5610 5609 5609 5609 5608 5607 5607 5608 5608 5608 5608 5609 5610 5612 5614 5616 5618 5620
5665 5662 5660 5658 5656 5653 5650 5647 5644 5642 5639 5636 5632 5629 5625 5622 5618 5615 5611 5608 5606 5603 5601 5600 5599 5597 5596 5595 5594 5593 5593 5592 5592 5591 5591 5591 5591 5592 5594 5596 5598 5600 5603
5656 5654 5652 5650 5647 5644 5641 5638 5635 5632 5629 5626 5622 5619 5615 5611 5608 5604 5601 5598 5595 5592 5589 5587 5585 5584 5582 5580 5579 5578 5577 5576 5575 5575 5574 5574 5574 5574 5576 5578 5581 5583 5585
5648 5645 5643 5640 5638 5635 5632 5629 5626 5622 5619 5616 5612 5609 5605 5601 5597 5594 5590 5587 5583 5580 5577 5574 5572 5569 5567 5565 5564 5562 5561 5560 5559 5558 5557 5556 5556 5557 5557 5559 5561 5563 5565
5639 5637 5634 5631 5628 5625 5622 5619 5616 5612 5609 5605 5602 5598 5594 5590 5587 5583 5579 5575 5572 5568 5565 5561 5558 5555 5553 5550 5548 5546 5544 5543 5543 5542 5540 5539 5538 5538 5538 5540 5541 5543 5545
5630 5627 5624 5621 5618 5615 5612 5609 5605 5602 5598 5594 5590 5586 5583 5579 5575 5571 5567 5563 5559 5555 5552 5548 5545 5541 5538 5536 5533 5531 5528 5526 5525 5524 5522 5522 5520 5519 5519 5520 5521 5523 5525
5621 5618 5615 5611 5608 5605 5602 5599 5595 5591 5587 5583 5579 5575 5571 5567 5563 5559 5555 5551 5547 5542 5538 5534 5531 5527 5524 5520 5517 5515 5512 5510 5508 5505 5504 5504 5502 5501 5500 5500 5500 5501 5503
5611 5608 5605 5602 5598 5595 5591 5588 5584 5580 5576 5572 5568 5563 5559 5555 5551 5547 5542 5538 5533 5528 5524 5520 5516 5512 5509 5505 5502 5499 5496 5493 5491 5488 5485 5484 5484 5482 5482 5481 5480 5480 5482
5601 5598 5595 5591 5588 5585 5581 5577 5573 5569 5565 5561 5556 5552 5547 5543 5538 5533 5529 5524 5519 5515 5510 5506 5502 5498 5494 5490 5487 5483 5479 5476 5473 5471 5468 5466 5464 5462 5464 5463 5461 5460 5460